,,Stat6,,Stat2,,Stat8,,Stat9,,Stat10,,Wind1,,Wind1,
time,status,PA1M_AVG,status,PR1M_SUM,status,RH1M_AVG,status,SR1M_AVG,status,TA1M_AVG,status,W1dAve1m,status,W1sAve1m,
2007-12-28, 00:00:00,VALID,916.854,VALID,0,VALID,100,VALID,0.0339617,VALID,19.5563,VALID,76,VALID,0,
2007-12-28, 00:01:00,VALID,916.861,VALID,0,VALID,100,VALID,-0.0169808,VALID,19.5171,VALID,76,VALID,0,
2007-12-28, 00:02:00,VALID,916.845,VALID,0,VALID,100,VALID,0,VALID,19.4912,VALID,76,VALID,0,
2007-12-28, 00:03:00,VALID,916.834,VALID,0,VALID,100,VALID,0.0169808,VALID,19.4555,VALID,76,VALID,0,
2007-12-28, 00:04:00,VALID,916.811,VALID,0,VALID,100,VALID,0,VALID,19.4715,VALID,76,VALID,0,
2007-12-28, 00:05:00,VALID,916.803,VALID,0,VALID,100,VALID,0.0339617,VALID,19.4907,VALID,76,VALID,0,
2007-12-28, 00:06:00,VALID,916.783,VALID,0,VALID,100,VALID,0.0339617,VALID,19.5004,VALID,76,VALID,0,
2007-12-28, 00:07:00,VALID,916.774,VALID,0,VALID,100,VALID,0,VALID,19.5136,VALID,76,VALID,0,
2007-12-28, 00:08:00,VALID,916.756,VALID,0,VALID,100,VALID,0.0509425,VALID,19.5199,VALID,76,VALID,0,
2007-12-28, 00:09:00,VALID,916.755,VALID,0,VALID,100,VALID,0,VALID,19.5264,VALID,76,VALID,0,
2007-12-28, 00:10:00,VALID,916.759,VALID,0,VALID,100,VALID,0,VALID,19.5331,VALID,76,VALID,0,
2007-12-28, 00:11:00,VALID,916.745,VALID,0,VALID,100,VALID,0,VALID,19.5333,VALID,76,VALID,0,
2007-12-28, 00:12:00,VALID,916.735,VALID,0,VALID,100,VALID,-0.0679233,VALID,19.5411,VALID,77,VALID,0,
2007-12-28, 00:13:00,VALID,916.718,VALID,0,VALID,100,VALID,-0.101885,VALID,19.5283,VALID,77,VALID,0,
2007-12-28, 00:14:00,VALID,916.714,VALID,0,VALID,100,VALID,-0.0849042,VALID,19.5119,VALID,82,VALID,0,
2007-12-28, 00:15:00,VALID,916.711,VALID,0,VALID,100,VALID,-0.101885,VALID,19.5154,VALID,104,VALID,0,
2007-12-28, 00:16:00,VALID,916.703,VALID,0,VALID,100,VALID,-0.0849042,VALID,19.5119,VALID,104,VALID,0,
2007-12-28, 00:17:00,VALID,916.709,VALID,0,VALID,100,VALID,-0.101885,VALID,19.5281,VALID,104,VALID,0,
2007-12-28, 00:18:00,VALID,916.704,VALID,0,VALID,100,VALID,-0.0169808,VALID,19.5408,VALID,104,VALID,0,
2007-12-28, 00:19:00,VALID,916.691,VALID,0,VALID,100,VALID,-0.0849042,VALID,19.5406,VALID,105,VALID,0,
2007-12-28, 00:20:00,VALID,916.683,VALID,0,VALID,100,VALID,-0.0679233,VALID,19.5438,VALID,105,VALID,0,
2007-12-28, 00:21:00,VALID,916.676,VALID,0,VALID,100,VALID,-0.0509425,VALID,19.5698,VALID,105,VALID,0,
2007-12-28, 00:22:00,VALID,916.666,VALID,0,VALID,100,VALID,-0.0509425,VALID,19.5957,VALID,105,VALID,0.0170455,
2007-12-28, 00:23:00,VALID,916.654,VALID,0,VALID,100,VALID,-0.0849042,VALID,19.6289,VALID,105,VALID,0.0553977,
2007-12-28, 00:24:00,VALID,916.645,VALID,0,VALID,100,VALID,-0.0849042,VALID,19.6377,VALID,105,VALID,0,
2007-12-28, 00:25:00,VALID,916.634,VALID,0,VALID,100,VALID,-0.101885,VALID,19.6544,VALID,105,VALID,0,
2007-12-28, 00:26:00,VALID,916.62,VALID,0,VALID,100,VALID,-0.0509425,VALID,19.6674,VALID,105,VALID,0,
2007-12-28, 00:27:00,VALID,916.623,VALID,0,VALID,100,VALID,-0.101885,VALID,19.6803,VALID,105,VALID,0,
2007-12-28, 00:28:00,VALID,916.621,VALID,0,VALID,100,VALID,-0.0679233,VALID,19.7063,VALID,105,VALID,0,
2007-12-28, 00:29:00,VALID,916.606,VALID,0,VALID,100,VALID,-0.118866,VALID,19.7193,VALID,105,VALID,0,
2007-12-28, 00:30:00,VALID,916.592,VALID,0,VALID,100,VALID,-0.0509425,VALID,19.7552,VALID,105,VALID,0,
2007-12-28, 00:31:00,VALID,916.57,VALID,0,VALID,100,VALID,-0.101885,VALID,19.8009,VALID,105,VALID,0,
2007-12-28, 00:32:00,VALID,916.543,VALID,0,VALID,100,VALID,-0.101885,VALID,19.8333,VALID,105,VALID,0,
2007-12-28, 00:33:00,VALID,916.533,VALID,0,VALID,100,VALID,-0.118866,VALID,19.8593,VALID,105,VALID,0,
2007-12-28, 00:34:00,VALID,916.504,VALID,0,VALID,100,VALID,-0.101885,VALID,19.8688,VALID,94,VALID,0.0793679,
2007-12-28, 00:35:00,VALID,916.464,VALID,0,VALID,100,VALID,-0.101885,VALID,19.8466,VALID,34,VALID,0.162574,
2007-12-28, 00:36:00,VALID,916.436,VALID,0,VALID,100,VALID,-0.0849042,VALID,19.8071,VALID,36,VALID,0,
2007-12-28, 00:37:00,VALID,916.423,VALID,0,VALID,100,VALID,-0.0849042,VALID,19.8396,VALID,37,VALID,0,
2007-12-28, 00:38:00,VALID,916.442,VALID,0,VALID,100,VALID,-0.0679233,VALID,19.8261,VALID,37,VALID,0,
2007-12-28, 00:39:00,VALID,916.448,VALID,0,VALID,100,VALID,-0.101885,VALID,19.8298,VALID,37,VALID,0,
2007-12-28, 00:40:00,VALID,916.45,VALID,0,VALID,100,VALID,-0.118866,VALID,19.8303,VALID,37,VALID,0,
2007-12-28, 00:41:00,VALID,916.445,VALID,0,VALID,100,VALID,-0.101885,VALID,19.8231,VALID,31,VALID,0,
2007-12-28, 00:42:00,VALID,916.439,VALID,0,VALID,100,VALID,-0.0509425,VALID,19.8166,VALID,275,VALID,0,
2007-12-28, 00:43:00,VALID,916.435,VALID,0,VALID,100,VALID,0,VALID,19.8156,VALID,234,VALID,0.074929,
2007-12-28, 00:44:00,VALID,916.431,VALID,0,VALID,100,VALID,0,VALID,19.8159,VALID,233,VALID,0,
2007-12-28, 00:45:00,VALID,916.429,VALID,0,VALID,100,VALID,0,VALID,19.8226,VALID,233,VALID,0,
2007-12-28, 00:46:00,VALID,916.435,VALID,0,VALID,100,VALID,0.0169808,VALID,19.8288,VALID,233,VALID,0,
2007-12-28, 00:47:00,VALID,916.415,VALID,0,VALID,100,VALID,0,VALID,19.8346,VALID,233,VALID,0,
2007-12-28, 00:48:00,VALID,916.397,VALID,0,VALID,100,VALID,0,VALID,19.8508,VALID,233,VALID,0,
2007-12-28, 00:49:00,VALID,916.365,VALID,0,VALID,100,VALID,0.0169808,VALID,19.8476,VALID,233,VALID,0,
2007-12-28, 00:50:00,VALID,916.346,VALID,0,VALID,100,VALID,0.0339617,VALID,19.8673,VALID,233,VALID,0,
2007-12-28, 00:51:00,VALID,916.325,VALID,0,VALID,100,VALID,0,VALID,19.8151,VALID,233,VALID,0,
2007-12-28, 00:52:00,VALID,916.315,VALID,0,VALID,100,VALID,0.0339617,VALID,19.7989,VALID,234,VALID,0,
2007-12-28, 00:53:00,VALID,916.313,VALID,0,VALID,100,VALID,0.0339617,VALID,19.7854,VALID,234,VALID,0,
2007-12-28, 00:54:00,VALID,916.298,VALID,0,VALID,100,VALID,0.0169808,VALID,19.7629,VALID,267,VALID,0,
2007-12-28, 00:55:00,VALID,916.306,VALID,0,VALID,100,VALID,0.0169808,VALID,19.6951,VALID,52,VALID,0.585366,
2007-12-28, 00:56:00,VALID,916.293,VALID,0,VALID,100,VALID,0.0169808,VALID,19.6244,VALID,51,VALID,0.602983,
2007-12-28, 00:57:00,VALID,916.282,VALID,0,VALID,100,VALID,-0.0509425,VALID,19.5503,VALID,58,VALID,0.853711,
2007-12-28, 00:58:00,VALID,916.284,VALID,0,VALID,100,VALID,-0.0849042,VALID,19.5081,VALID,60,VALID,0.757267,
2007-12-28, 00:59:00,VALID,916.283,VALID,0,VALID,100,VALID,-0.0679233,VALID,19.4762,VALID,71,VALID,0.319922,
2007-12-28, 01:00:00,VALID,916.294,VALID,0,VALID,100,VALID,-0.118866,VALID,19.4505,VALID,85,VALID,0,
2007-12-28, 01:01:00,VALID,916.31,VALID,0,VALID,100,VALID,-0.101885,VALID,19.4303,VALID,87,VALID,0,
2007-12-28, 01:02:00,VALID,916.302,VALID,0,VALID,100,VALID,-0.101885,VALID,19.4338,VALID,87,VALID,0,
2007-12-28, 01:03:00,VALID,916.291,VALID,0,VALID,100,VALID,-0.0679233,VALID,19.447,VALID,87,VALID,0,
2007-12-28, 01:04:00,VALID,916.279,VALID,0,VALID,100,VALID,-0.0849042,VALID,19.4467,VALID,87,VALID,0,
2007-12-28, 01:05:00,VALID,916.262,VALID,0,VALID,100,VALID,-0.0679233,VALID,19.443,VALID,87,VALID,0,
2007-12-28, 01:06:00,VALID,916.247,VALID,0,VALID,100,VALID,-0.0849042,VALID,19.4365,VALID,86,VALID,0,
2007-12-28, 01:07:00,VALID,916.227,VALID,0,VALID,100,VALID,-0.0679233,VALID,19.4205,VALID,85,VALID,0,
2007-12-28, 01:08:00,VALID,916.213,VALID,0,VALID,100,VALID,-0.0509425,VALID,19.4076,VALID,85,VALID,0,
2007-12-28, 01:09:00,VALID,916.185,VALID,0,VALID,100,VALID,-0.0509425,VALID,19.3918,VALID,72,VALID,0,
2007-12-28, 01:10:00,VALID,916.182,VALID,0,VALID,100,VALID,-0.0679233,VALID,19.4018,VALID,69,VALID,0,
2007-12-28, 01:11:00,VALID,916.162,VALID,0,VALID,100,VALID,-0.101885,VALID,19.4143,VALID,69,VALID,0,
2007-12-28, 01:12:00,VALID,916.17,VALID,0,VALID,100,VALID,-0.0509425,VALID,19.4363,VALID,69,VALID,0,
2007-12-28, 01:13:00,VALID,916.158,VALID,0,VALID,100,VALID,0,VALID,19.4552,VALID,69,VALID,0,
2007-12-28, 01:14:00,VALID,916.143,VALID,0,VALID,100,VALID,0,VALID,19.4877,VALID,69,VALID,0,
2007-12-28, 01:15:00,VALID,916.134,VALID,0,VALID,100,VALID,0,VALID,19.5002,VALID,69,VALID,0,
2007-12-28, 01:16:00,VALID,916.125,VALID,0,VALID,100,VALID,0,VALID,19.5136,VALID,69,VALID,0,
2007-12-28, 01:17:00,VALID,916.095,VALID,0,VALID,100,VALID,0.0169808,VALID,19.5004,VALID,69,VALID,0,
2007-12-28, 01:18:00,VALID,916.095,VALID,0,VALID,100,VALID,0.0169808,VALID,19.4974,VALID,69,VALID,0,
2007-12-28, 01:19:00,VALID,916.071,VALID,0,VALID,100,VALID,0,VALID,19.4839,VALID,69,VALID,0,
2007-12-28, 01:20:00,VALID,916.07,VALID,0,VALID,100,VALID,0.0339617,VALID,19.4809,VALID,69,VALID,0,
2007-12-28, 01:21:00,VALID,916.063,VALID,0,VALID,100,VALID,0,VALID,19.4779,VALID,69,VALID,0,
2007-12-28, 01:22:00,VALID,916.055,VALID,0,VALID,100,VALID,0.0509425,VALID,19.4552,VALID,69,VALID,0,
2007-12-28, 01:23:00,VALID,916.03,VALID,0,VALID,100,VALID,0.0169808,VALID,19.4156,VALID,69,VALID,0,
2007-12-28, 01:24:00,VALID,916.046,VALID,0,VALID,100,VALID,0.0169808,VALID,19.3966,VALID,69,VALID,0,
2007-12-28, 01:25:00,VALID,916.035,VALID,0,VALID,100,VALID,0.0169808,VALID,19.3993,VALID,69,VALID,0,
2007-12-28, 01:26:00,VALID,916.026,VALID,0,VALID,100,VALID,0,VALID,19.4093,VALID,69,VALID,0,
2007-12-28, 01:27:00,VALID,916.014,VALID,0,VALID,100,VALID,-0.0509425,VALID,19.4173,VALID,69,VALID,0,
2007-12-28, 01:28:00,VALID,916.012,VALID,0,VALID,100,VALID,-0.0339617,VALID,19.4008,VALID,69,VALID,0,
2007-12-28, 01:29:00,VALID,916.004,VALID,0,VALID,100,VALID,-0.0679233,VALID,19.3781,VALID,63,VALID,0,
2007-12-28, 01:30:00,VALID,916.012,VALID,0,VALID,100,VALID,-0.0849042,VALID,19.3651,VALID,31,VALID,0,
2007-12-28, 01:31:00,VALID,916.021,VALID,0,VALID,100,VALID,-0.118866,VALID,19.3823,VALID,25,VALID,0,
2007-12-28, 01:32:00,VALID,916.035,VALID,0,VALID,100,VALID,-0.101885,VALID,19.4011,VALID,23,VALID,0,
2007-12-28, 01:33:00,VALID,916.051,VALID,0,VALID,100,VALID,-0.101885,VALID,19.4208,VALID,23,VALID,0,
2007-12-28, 01:34:00,VALID,916.073,VALID,0,VALID,100,VALID,-0.0679233,VALID,19.4303,VALID,23,VALID,0,
2007-12-28, 01:35:00,VALID,916.081,VALID,0,VALID,100,VALID,-0.0849042,VALID,19.4397,VALID,23,VALID,0,
2007-12-28, 01:36:00,VALID,916.081,VALID,0,VALID,100,VALID,-0.101885,VALID,19.4595,VALID,23,VALID,0,
2007-12-28, 01:37:00,VALID,916.076,VALID,0,VALID,100,VALID,-0.0509425,VALID,19.4789,VALID,23,VALID,0,
2007-12-28, 01:38:00,VALID,916.065,VALID,0,VALID,100,VALID,-0.0849042,VALID,19.5151,VALID,23,VALID,0,
2007-12-28, 01:39:00,VALID,916.03,VALID,0,VALID,100,VALID,-0.101885,VALID,19.5184,VALID,23,VALID,0,
2007-12-28, 01:40:00,VALID,916.025,VALID,0,VALID,100,VALID,-0.118866,VALID,19.4951,VALID,23,VALID,0,
2007-12-28, 01:41:00,VALID,916.01,VALID,0,VALID,100,VALID,-0.101885,VALID,19.4919,VALID,23,VALID,0,
2007-12-28, 01:42:00,VALID,915.99,VALID,0,VALID,100,VALID,-0.101885,VALID,19.4892,VALID,23,VALID,0,
2007-12-28, 01:43:00,VALID,915.984,VALID,0,VALID,100,VALID,-0.101885,VALID,19.4689,VALID,23,VALID,0,
2007-12-28, 01:44:00,VALID,916.002,VALID,0,VALID,100,VALID,-0.0679233,VALID,19.4662,VALID,23,VALID,0,
2007-12-28, 01:45:00,VALID,916.005,VALID,0,VALID,100,VALID,-0.101885,VALID,19.4402,VALID,23,VALID,0,
2007-12-28, 01:46:00,VALID,916.003,VALID,0,VALID,100,VALID,-0.0849042,VALID,19.4046,VALID,23,VALID,0,
2007-12-28, 01:47:00,VALID,916.01,VALID,0,VALID,100,VALID,-0.0849042,VALID,19.3786,VALID,23,VALID,0,
2007-12-28, 01:48:00,VALID,916.027,VALID,0,VALID,100,VALID,-0.0509425,VALID,19.3943,VALID,23,VALID,0,
2007-12-28, 01:49:00,VALID,916.001,VALID,0,VALID,100,VALID,-0.0679233,VALID,19.4143,VALID,23,VALID,0,
2007-12-28, 01:50:00,VALID,915.983,VALID,0,VALID,100,VALID,-0.0849042,VALID,19.4043,VALID,23,VALID,0,
2007-12-28, 01:51:01,VALID,915.973,VALID,0,VALID,100,VALID,-0.101885,VALID,19.4235,VALID,15,VALID,0,
2007-12-28, 01:52:00,VALID,915.956,VALID,0,VALID,100,VALID,-0.0679233,VALID,19.4597,VALID,19,VALID,0.047247,
2007-12-28, 01:53:00,VALID,915.939,VALID,0,VALID,100,VALID,-0.0849042,VALID,19.4949,VALID,21,VALID,0.892987,
2007-12-28, 01:54:00,VALID,915.939,VALID,0,VALID,100,VALID,-0.0849042,VALID,19.5243,VALID,27,VALID,0.222461,
2007-12-28, 01:55:01,VALID,915.923,VALID,0,VALID,100,VALID,-0.0849042,VALID,19.56,VALID,27,VALID,0,
2007-12-28, 01:56:00,VALID,915.896,VALID,0,VALID,100,VALID,-0.0849042,VALID,19.58,VALID,27,VALID,0.00117188,
2007-12-28, 01:57:01,VALID,915.908,VALID,0,VALID,100,VALID,-0.0849042,VALID,19.5995,VALID,26,VALID,0,
2007-12-28, 01:58:00,VALID,915.896,VALID,0,VALID,100,VALID,-0.0849042,VALID,19.6052,VALID,23,VALID,0.0555959,
2007-12-28, 01:59:00,VALID,915.885,VALID,0,VALID,100,VALID,-0.0849042,VALID,19.6344,VALID,20,VALID,0.679878,
2007-12-28, 02:00:00,VALID,915.877,VALID,0,VALID,100,VALID,-0.101885,VALID,19.6409,VALID,16,VALID,1.33008,
2007-12-28, 02:01:00,VALID,915.856,VALID,0,VALID,100,VALID,-0.118866,VALID,19.6606,VALID,10,VALID,1.29052,
2007-12-28, 02:02:01,VALID,915.847,VALID,0,VALID,100,VALID,-0.101885,VALID,19.6606,VALID,4,VALID,1.14023,
2007-12-28, 02:03:00,VALID,915.825,VALID,0,VALID,100,VALID,-0.101885,VALID,19.6644,VALID,13,VALID,0.975472,
2007-12-28, 02:04:00,VALID,915.806,VALID,0,VALID,100,VALID,-0.101885,VALID,19.6541,VALID,15,VALID,1.36158,
2007-12-28, 02:05:01,VALID,915.799,VALID,0,VALID,100,VALID,-0.0849042,VALID,19.6506,VALID,17,VALID,1.32637,
2007-12-28, 02:06:00,VALID,915.766,VALID,0,VALID,100,VALID,-0.101885,VALID,19.6514,VALID,16,VALID,1.21875,
2007-12-28, 02:07:00,VALID,915.765,VALID,0,VALID,100,VALID,-0.101885,VALID,19.6476,VALID,18,VALID,0.934524,
2007-12-28, 02:08:00,VALID,915.748,VALID,0,VALID,100,VALID,-0.101885,VALID,19.6479,VALID,25,VALID,0.974516,
2007-12-28, 02:09:00,VALID,915.741,VALID,0,VALID,100,VALID,-0.101885,VALID,19.6349,VALID,14,VALID,0.880149,
2007-12-28, 02:10:00,VALID,915.714,VALID,0,VALID,100,VALID,-0.101885,VALID,19.6092,VALID,31,VALID,1.37444,
2007-12-28, 02:11:00,VALID,915.724,VALID,0,VALID,100,VALID,-0.101885,VALID,19.5995,VALID,26,VALID,0.945313,
2007-12-28, 02:12:01,VALID,915.707,VALID,0,VALID,100,VALID,-0.0509425,VALID,19.572,VALID,28,VALID,0.301448,
2007-12-28, 02:13:00,VALID,915.687,VALID,0,VALID,100,VALID,0,VALID,19.5588,VALID,30,VALID,1.31541,
2007-12-28, 02:14:00,VALID,915.648,VALID,0,VALID,100,VALID,0.0169808,VALID,19.5588,VALID,15,VALID,1.2483,
2007-12-28, 02:15:00,VALID,915.642,VALID,0,VALID,100,VALID,-0.0169808,VALID,19.5718,VALID,28,VALID,1.17225,
2007-12-28, 02:16:00,VALID,915.621,VALID,0,VALID,100,VALID,0,VALID,19.5843,VALID,17,VALID,1.00039,
2007-12-28, 02:17:00,VALID,915.604,VALID,0,VALID,100,VALID,-0.0169808,VALID,19.6005,VALID,17,VALID,0.5125,
2007-12-28, 02:18:01,VALID,915.599,VALID,0,VALID,100,VALID,0,VALID,19.611,VALID,23,VALID,0.728561,
2007-12-28, 02:19:00,VALID,915.576,VALID,0,VALID,100,VALID,-0.0169808,VALID,19.5945,VALID,38,VALID,0.935138,
2007-12-28, 02:20:00,VALID,915.565,VALID,0,VALID,100,VALID,0,VALID,19.5907,VALID,11,VALID,1.28639,
2007-12-28, 02:21:00,VALID,915.557,VALID,0,VALID,100,VALID,0,VALID,19.585,VALID,24,VALID,1.28218,
2007-12-28, 02:22:00,VALID,915.568,VALID,0,VALID,100,VALID,-0.0169808,VALID,19.565,VALID,28,VALID,1.14158,
2007-12-28, 02:23:00,VALID,915.554,VALID,0,VALID,100,VALID,-0.0169808,VALID,19.5486,VALID,27,VALID,0.849568,
2007-12-28, 02:24:01,VALID,915.566,VALID,0,VALID,100,VALID,-0.0169808,VALID,19.5556,VALID,14,VALID,0.791667,
2007-12-28, 02:25:00,VALID,915.571,VALID,0,VALID,100,VALID,-0.0169808,VALID,19.5558,VALID,26,VALID,0.911044,
2007-12-28, 02:26:01,VALID,915.569,VALID,0,VALID,100,VALID,0,VALID,19.562,VALID,4,VALID,1.27474,
2007-12-28, 02:27:00,VALID,915.576,VALID,0,VALID,100,VALID,0,VALID,19.5748,VALID,359,VALID,0.740337,
2007-12-28, 02:28:00,VALID,915.571,VALID,0,VALID,100,VALID,0,VALID,19.6209,VALID,12,VALID,0.801153,
2007-12-28, 02:29:00,VALID,915.561,VALID,0,VALID,100,VALID,0,VALID,19.611,VALID,13,VALID,0.813021,
2007-12-28, 02:30:01,VALID,915.544,VALID,0,VALID,100,VALID,0,VALID,19.6404,VALID,32,VALID,0.84013,
2007-12-28, 02:31:01,VALID,915.533,VALID,0,VALID,100,VALID,-0.0169808,VALID,19.6564,VALID,26,VALID,1.08514,
2007-12-28, 02:32:01,VALID,915.516,VALID,0,VALID,100,VALID,-0.0169808,VALID,19.6629,VALID,5,VALID,1.39267,
2007-12-28, 02:33:00,VALID,915.486,VALID,0,VALID,100,VALID,0.0169808,VALID,19.6624,VALID,18,VALID,1.00213,
2007-12-28, 02:34:00,VALID,915.463,VALID,0,VALID,100,VALID,0.0169808,VALID,19.6656,VALID,22,VALID,0.659655,
2007-12-28, 02:35:00,VALID,915.442,VALID,0,VALID,100,VALID,0.0509425,VALID,19.6821,VALID,22,VALID,0.375186,
2007-12-28, 02:36:01,VALID,915.437,VALID,0,VALID,100,VALID,0.0339617,VALID,19.6786,VALID,9,VALID,0.633956,
2007-12-28, 02:37:01,VALID,915.427,VALID,0,VALID,100,VALID,0.0169808,VALID,19.6921,VALID,27,VALID,1.29725,
2007-12-28, 02:38:01,VALID,915.429,VALID,0,VALID,100,VALID,0,VALID,19.6721,VALID,17,VALID,1.31613,
2007-12-28, 02:39:01,VALID,915.429,VALID,0,VALID,100,VALID,0,VALID,19.6659,VALID,26,VALID,1.33822,
2007-12-28, 02:40:01,VALID,915.408,VALID,0,VALID,100,VALID,0.0339617,VALID,19.6689,VALID,21,VALID,0.57758,
2007-12-28, 02:41:01,VALID,915.404,VALID,0,VALID,100,VALID,-0.0169808,VALID,19.6686,VALID,17,VALID,0.745117,
2007-12-28, 02:42:00,VALID,915.392,VALID,0,VALID,100,VALID,-0.0169808,VALID,19.6566,VALID,4,VALID,0.786458,
2007-12-28, 02:43:01,VALID,915.379,VALID,0,VALID,100,VALID,-0.0679233,VALID,19.6574,VALID,355,VALID,0.100632,
2007-12-28, 02:44:01,VALID,915.367,VALID,0,VALID,100,VALID,-0.101885,VALID,19.6576,VALID,336,VALID,0.307813,
2007-12-28, 02:45:01,VALID,915.36,VALID,0,VALID,100,VALID,-0.0849042,VALID,19.6706,VALID,14,VALID,1.21801,
2007-12-28, 02:46:01,VALID,915.357,VALID,0,VALID,100,VALID,-0.101885,VALID,19.6798,VALID,12,VALID,1.12589,
2007-12-28, 02:47:01,VALID,915.355,VALID,0,VALID,100,VALID,-0.0849042,VALID,19.6898,VALID,359,VALID,0.993253,
2007-12-28, 02:48:01,VALID,915.363,VALID,0,VALID,100,VALID,-0.101885,VALID,19.6898,VALID,12,VALID,1.50457,
2007-12-28, 02:49:01,VALID,915.383,VALID,0,VALID,100,VALID,-0.101885,VALID,19.6833,VALID,329,VALID,1.26829,
2007-12-28, 02:50:01,VALID,915.389,VALID,0,VALID,100,VALID,-0.101885,VALID,19.6996,VALID,356,VALID,0.910742,
2007-12-28, 02:51:01,VALID,915.411,VALID,0,VALID,100,VALID,-0.0849042,VALID,19.7025,VALID,6,VALID,0.316602,
2007-12-28, 02:52:00,VALID,915.418,VALID,0,VALID,100,VALID,-0.0679233,VALID,19.7225,VALID,3,VALID,0.0299479,
2007-12-28, 02:53:00,VALID,915.416,VALID,0,VALID,100,VALID,-0.118866,VALID,19.7357,VALID,2,VALID,0.00117188,
2007-12-28, 02:54:00,VALID,915.41,VALID,0,VALID,100,VALID,-0.101885,VALID,19.7288,VALID,2,VALID,0.0244565,
2007-12-28, 02:55:00,VALID,915.389,VALID,0,VALID,100,VALID,-0.101885,VALID,19.732,VALID,7,VALID,0.0788352,
2007-12-28, 02:56:00,VALID,915.383,VALID,0,VALID,100,VALID,-0.101885,VALID,19.7547,VALID,9,VALID,0,
2007-12-28, 02:57:00,VALID,915.363,VALID,0,VALID,100,VALID,-0.0679233,VALID,19.758,VALID,7,VALID,0.0762649,
2007-12-28, 02:58:00,VALID,915.363,VALID,0,VALID,100,VALID,-0.0169808,VALID,19.744,VALID,334,VALID,0.294097,
2007-12-28, 02:59:00,VALID,915.358,VALID,0,VALID,100,VALID,-0.0339617,VALID,19.7475,VALID,309,VALID,0.0160061,
2007-12-28, 03:00:00,VALID,915.359,VALID,0,VALID,100,VALID,-0.0509425,VALID,19.7412,VALID,318,VALID,0.0813954,
2007-12-28, 03:01:00,VALID,915.351,VALID,0,VALID,100,VALID,-0.0169808,VALID,19.754,VALID,328,VALID,0,
2007-12-28, 03:02:00,VALID,915.339,VALID,0,VALID,100,VALID,-0.0509425,VALID,19.754,VALID,5,VALID,1.10957,
2007-12-28, 03:03:00,VALID,915.319,VALID,0,VALID,100,VALID,-0.0169808,VALID,19.744,VALID,19,VALID,1.35103,
2007-12-28, 03:04:00,VALID,915.325,VALID,0,VALID,100,VALID,-0.0679233,VALID,19.7572,VALID,12,VALID,1.3332,
2007-12-28, 03:05:00,VALID,915.302,VALID,0,VALID,100,VALID,-0.0339617,VALID,19.7507,VALID,36,VALID,1.44606,
2007-12-28, 03:06:00,VALID,915.309,VALID,0,VALID,100,VALID,-0.0849042,VALID,19.7507,VALID,24,VALID,0.891406,
2007-12-28, 03:07:00,VALID,915.313,VALID,0,VALID,100,VALID,0,VALID,19.7669,VALID,3,VALID,0.204613,
2007-12-28, 03:08:00,VALID,915.298,VALID,0,VALID,100,VALID,-0.0849042,VALID,19.7772,VALID,3,VALID,0,
2007-12-28, 03:09:00,VALID,915.278,VALID,0,VALID,100,VALID,-0.0509425,VALID,19.7769,VALID,3,VALID,0,
2007-12-28, 03:10:00,VALID,915.272,VALID,0,VALID,100,VALID,-0.0169808,VALID,19.7704,VALID,3,VALID,0,
2007-12-28, 03:11:00,VALID,915.262,VALID,0,VALID,100,VALID,-0.0169808,VALID,19.7734,VALID,3,VALID,0,
2007-12-28, 03:12:00,VALID,915.235,VALID,0,VALID,100,VALID,-0.0679233,VALID,19.7602,VALID,334,VALID,0.269245,
2007-12-28, 03:13:00,VALID,915.202,VALID,0,VALID,100,VALID,-0.0169808,VALID,19.7637,VALID,315,VALID,0.0506811,
2007-12-28, 03:14:00,VALID,915.152,VALID,0,VALID,100,VALID,-0.0339617,VALID,19.7607,VALID,354,VALID,0.269431,
2007-12-28, 03:15:00,VALID,915.124,VALID,0,VALID,100,VALID,-0.0169808,VALID,19.7607,VALID,3,VALID,0.40282,
2007-12-28, 03:16:00,VALID,915.092,VALID,0,VALID,100,VALID,0,VALID,19.7607,VALID,10,VALID,0.826853,
2007-12-28, 03:17:00,VALID,915.069,VALID,0,VALID,100,VALID,-0.0509425,VALID,19.76,VALID,354,VALID,0.485973,
2007-12-28, 03:18:00,VALID,915.068,VALID,0,VALID,100,VALID,-0.0509425,VALID,19.7669,VALID,41,VALID,0.555804,
2007-12-28, 03:19:00,VALID,915.068,VALID,0,VALID,100,VALID,-0.0679233,VALID,19.7837,VALID,24,VALID,0.531795,
2007-12-28, 03:20:00,VALID,915.032,VALID,0,VALID,100,VALID,-0.0339617,VALID,19.7769,VALID,21,VALID,0.580729,
2007-12-28, 03:21:00,VALID,915.009,VALID,0,VALID,100,VALID,-0.0509425,VALID,19.7699,VALID,18,VALID,0.766927,
2007-12-28, 03:22:00,VALID,915.013,VALID,0,VALID,100,VALID,-0.0169808,VALID,19.7827,VALID,19,VALID,0.717685,
2007-12-28, 03:23:00,VALID,914.987,VALID,0,VALID,100,VALID,-0.0169808,VALID,19.7859,VALID,24,VALID,0.228198,
2007-12-28, 03:24:00,VALID,914.964,VALID,0,VALID,100,VALID,-0.0169808,VALID,19.7792,VALID,24,VALID,0,
2007-12-28, 03:25:00,VALID,914.967,VALID,0,VALID,100,VALID,-0.0509425,VALID,19.7929,VALID,24,VALID,0,
2007-12-28, 03:26:00,VALID,914.966,VALID,0,VALID,100,VALID,-0.0339617,VALID,19.8161,VALID,9,VALID,0.45206,
2007-12-28, 03:27:00,VALID,914.972,VALID,0,VALID,100,VALID,0,VALID,19.7897,VALID,354,VALID,0.520419,
2007-12-28, 03:28:00,VALID,914.955,VALID,0,VALID,100,VALID,0,VALID,19.7634,VALID,334,VALID,0.763672,
2007-12-28, 03:29:00,VALID,914.945,VALID,0,VALID,100,VALID,-0.0509425,VALID,19.731,VALID,352,VALID,0.509084,
2007-12-28, 03:30:00,VALID,914.927,VALID,0,VALID,100,VALID,0,VALID,19.7475,VALID,358,VALID,0.671875,
2007-12-28, 03:31:00,VALID,914.925,VALID,0,VALID,100,VALID,-0.0169808,VALID,19.7442,VALID,358,VALID,0.140443,
2007-12-28, 03:32:00,VALID,914.924,VALID,0,VALID,100,VALID,-0.0339617,VALID,19.741,VALID,2,VALID,0.112282,
2007-12-28, 03:33:00,VALID,914.934,VALID,0,VALID,100,VALID,-0.0679233,VALID,19.7542,VALID,16,VALID,0.672396,
2007-12-28, 03:34:00,VALID,914.922,VALID,0,VALID,100,VALID,-0.0339617,VALID,19.7377,VALID,12,VALID,0.613459,
2007-12-28, 03:35:00,VALID,914.944,VALID,0,VALID,100,VALID,-0.0169808,VALID,19.7178,VALID,15,VALID,0.470203,
2007-12-28, 03:36:00,VALID,914.967,VALID,0,VALID,100,VALID,-0.0339617,VALID,19.7045,VALID,15,VALID,0.0911458,
2007-12-28, 03:37:00,VALID,914.961,VALID,0,VALID,100,VALID,0,VALID,19.7021,VALID,15,VALID,0.0695312,
2007-12-28, 03:38:00,VALID,914.962,VALID,0,VALID,100,VALID,0,VALID,19.6951,VALID,23,VALID,0.512195,
2007-12-28, 03:39:00,VALID,914.954,VALID,0,VALID,100,VALID,-0.0509425,VALID,19.6921,VALID,22,VALID,0.649581,
2007-12-28, 03:40:00,VALID,914.975,VALID,0,VALID,100,VALID,-0.0169808,VALID,19.6724,VALID,3,VALID,0.625727,
2007-12-28, 03:41:00,VALID,914.999,VALID,0,VALID,100,VALID,-0.0169808,VALID,19.6661,VALID,353,VALID,0.344866,
2007-12-28, 03:42:00,VALID,914.997,VALID,0,VALID,100,VALID,-0.0169808,VALID,19.6501,VALID,346,VALID,0,
2007-12-28, 03:43:00,VALID,914.998,VALID,0,VALID,100,VALID,0,VALID,19.6334,VALID,346,VALID,0,
2007-12-28, 03:44:00,VALID,914.99,VALID,0,VALID,100,VALID,-0.0169808,VALID,19.6364,VALID,346,VALID,0,
2007-12-28, 03:45:00,VALID,914.97,VALID,0,VALID,100,VALID,-0.0169808,VALID,19.6601,VALID,346,VALID,0,
2007-12-28, 03:46:00,VALID,914.953,VALID,0,VALID,100,VALID,-0.0339617,VALID,19.6526,VALID,346,VALID,0,
2007-12-28, 03:47:00,VALID,914.954,VALID,0,VALID,100,VALID,-0.0169808,VALID,19.6661,VALID,346,VALID,0,